| time (UTC) | temp F | wind direction | speed MPH | gust MPH | rain 1hr in | rain 24hr in | rain mn in | humidity % | barometer mb |
| 20260505213034 | 68 | 207 | 7.0 | 17.0 | 0.00 | 0.28 | 0.28 | 47 | 999.8 |
| 20260505211532 | 68 | 192 | 7.0 | 24.0 | 0.00 | 0.28 | 0.28 | 48 | 999.4 |
| 20260505210029 | 68 | 229 | 7.0 | 22.0 | 0.00 | 0.28 | 0.28 | 46 | 999.2 |
| 20260505204519 | 68 | 220 | 7.0 | 20.0 | 0.00 | 0.28 | 0.28 | 39 | 999.0 |
| 20260505203015 | 67 | 187 | 6.0 | 13.0 | 0.00 | 0.28 | 0.28 | 21 | 998.9 |
| 20260505201510 | 66 | 175 | 7.0 | 14.0 | 0.00 | 0.28 | 0.28 | 100 | 998.8 |
| 20260505200005 | 63 | 186 | 5.0 | 10.0 | 0.00 | 0.28 | 0.28 | 100 | 999.1 |
| 20260505194502 | 61 | 192 | 4.0 | 13.0 | 0.02 | 0.28 | 0.28 | 100 | 999.4 |
| 20260505193103 | 59 | 194 | 4.0 | 9.0 | 0.07 | 0.28 | 0.28 | 100 | 999.5 |
| 20260505191606 | 58 | 237 | 5.0 | 9.0 | 0.14 | 0.28 | 0.28 | 100 | 999.8 |
| 20260505190049 | 56 | 200 | 2.0 | 8.0 | 0.18 | 0.28 | 0.28 | 100 | 999.9 |
| 20260505184544 | 56 | 240 | 1.0 | 4.0 | 0.19 | 0.27 | 0.27 | 100 | 1000.2 |
| 20260505183041 | 56 | 240 | 1.0 | 5.0 | 0.14 | 0.22 | 0.22 | 100 | 1000.6 |
| 20260505181538 | 58 | 281 | 5.0 | 12.0 | 0.07 | 0.15 | 0.15 | 100 | 1000.2 |
| 20260505180043 | 62 | 310 | 6.0 | 12.0 | 0.03 | 0.11 | 0.11 | 100 | 1000.1 |
| 20260505174529 | 63 | 192 | 1.0 | 7.0 | 0.00 | 0.08 | 0.08 | 29 | 999.4 |
| 20260505173026 | 64 | 182 | 3.0 | 12.0 | 0.00 | 0.08 | 0.08 | 33 | 999.4 |
| 20260505171519 | 64 | 186 | 7.0 | 12.0 | 0.00 | 0.08 | 0.08 | 36 | 999.6 |
| 20260505170014 | 63 | 190 | 6.0 | 11.0 | 0.00 | 0.08 | 0.08 | 33 | 1000.0 |
| 20260505164510 | 63 | 191 | 7.0 | 16.0 | 0.00 | 0.10 | 0.08 | 27 | 1000.3 |
| 20260505163006 | 63 | 184 | 5.0 | 13.0 | 0.00 | 0.10 | 0.08 | 8 | 1000.6 |
| 20260505161501 | 60 | 188 | 7.0 | 13.0 | 0.01 | 0.10 | 0.08 | 100 | 1001.0 |
| 20260505153048 | 58 | 192 | 6.0 | 14.0 | 0.08 | 0.17 | 0.08 | 100 | 1001.6 |
| 20260505151543 | 58 | 186 | 6.0 | 12.0 | 0.07 | 0.16 | 0.07 | 100 | 1002.0 |
| 20260505124602 | 60 | 180 | 3.0 | 11.0 | 0.00 | 0.17 | 0.00 | 53 | 1001.8 |
| 20260505123101 | 60 | 213 | 5.0 | 12.0 | 0.00 | 0.17 | 0.00 | 54 | 1001.8 |
| 20260505121620 | 59 | 188 | 5.0 | 15.0 | 0.00 | 0.17 | 0.00 | 54 | 1001.9 |
| 20260505120047 | 58 | 158 | 7.0 | 15.0 | 0.00 | 0.17 | 0.00 | 54 | 1001.8 |
| 20260505114542 | 58 | 159 | 9.0 | 17.0 | 0.00 | 0.17 | 0.00 | 54 | 1002.0 |
| 20260505113046 | 57 | 193 | 7.0 | 20.0 | 0.00 | 0.17 | 0.00 | 54 | 1001.7 |
| 20260505111539 | 56 | 184 | 6.0 | 19.0 | 0.00 | 0.17 | 0.00 | 53 | 1001.8 |
| 20260505101516 | 53 | 182 | 6.0 | 11.0 | 0.00 | 0.17 | 0.00 | 46 | 1002.2 |
| 20260505100018 | 54 | 179 | 5.0 | 13.0 | 0.00 | 0.17 | 0.00 | 52 | 1002.4 |
| 20260505094512 | 55 | 180 | 7.0 | 17.0 | 0.00 | 0.17 | 0.00 | 54 | 1002.3 |
| 20260505093004 | 55 | 176 | 9.0 | 15.0 | 0.00 | 0.17 | 0.00 | 54 | 1002.2 |
| 20260505091618 | 55 | 178 | 9.0 | 16.0 | 0.00 | 0.17 | 0.00 | 53 | 1002.3 |
| 20260505090101 | 54 | 173 | 6.0 | 16.0 | 0.00 | 0.17 | 0.00 | 49 | 1002.2 |
| 20260505084550 | 53 | 185 | 6.0 | 15.0 | 0.00 | 0.17 | 0.00 | 44 | 1002.3 |
| 20260505083051 | 53 | 165 | 7.0 | 18.0 | 0.00 | 0.17 | 0.00 | 40 | 1002.3 |
| 20260505081545 | 53 | 182 | 6.0 | 11.0 | 0.00 | 0.17 | 0.00 | 31 | 1002.6 |
| 20260505080046 | 51 | 186 | 4.0 | 13.0 | 0.00 | 0.17 | 0.00 | 3 | 1002.9 |
| 20260505074533 | 45 | 90 | 1.0 | 5.0 | 0.00 | 0.17 | 0.00 | 100 | 1003.1 |
| 20260505073031 | 44 | 90 | 0.0 | 7.0 | 0.00 | 0.17 | 0.00 | 100 | 1003.0 |
| 20260505071534 | 44 | 94 | 2.0 | 6.0 | 0.00 | 0.17 | 0.00 | 100 | 1003.2 |
| 20260505070020 | 43 | 94 | 2.0 | 7.0 | 0.00 | 0.17 | 0.00 | 100 | 1003.3 |
| 20260505064515 | 43 | 117 | 0.0 | 3.0 | 0.00 | 0.17 | 0.00 | 100 | 1003.4 |
| 20260505063015 | 43 | 117 | 0.0 | 3.0 | 0.00 | 0.17 | 0.00 | 100 | 1003.7 |
| 20260505061507 | 44 | 117 | 0.0 | 3.0 | 0.00 | 0.17 | 0.00 | 100 | 1003.7 |
| 20260505060002 | 44 | 117 | 0.0 | 5.0 | 0.00 | 0.17 | 0.00 | 100 | 1003.9 |
| 20260505054621 | 44 | 76 | 2.0 | 8.0 | 0.00 | 0.17 | 0.00 | 100 | 1004.1 |
| 20260505053053 | 44 | 74 | 2.0 | 7.0 | 0.00 | 0.17 | 0.00 | 100 | 1004.4 |
| 20260505051549 | 44 | 84 | 3.0 | 7.0 | 0.00 | 0.17 | 0.00 | 100 | 1004.5 |
| 20260505041544 | 42 | 34 | 3.0 | 5.0 | 0.00 | 0.17 | 0.00 | 100 | 1005.2 |
| 20260505040027 | 42 | 30 | 1.0 | 4.0 | 0.00 | 0.17 | 0.00 | 100 | 1005.2 |
| 20260505034523 | 43 | 21 | 2.0 | 5.0 | 0.00 | 0.17 | 0.17 | 100 | 1005.3 |
| 20260505033022 | 42 | 355 | 3.0 | 6.0 | 0.00 | 0.17 | 0.17 | 100 | 1005.5 |
| 20260505031525 | 42 | 293 | 1.0 | 3.0 | 0.00 | 0.17 | 0.17 | 100 | 1005.5 |
| 20260505030009 | 42 | 292 | 0.0 | 4.0 | 0.00 | 0.17 | 0.17 | 100 | 1005.8 |
| 20260505024505 | 42 | 291 | 0.0 | 4.0 | 0.00 | 0.17 | 0.17 | 100 | 1005.9 |
| 20260505023001 | 42 | 291 | 0.0 | 2.0 | 0.00 | 0.17 | 0.17 | 100 | 1005.9 |
| 20260505021559 | 41 | 291 | 0.0 | 2.0 | 0.00 | 0.17 | 0.17 | 100 | 1005.9 |
| 20260505014548 | 41 | 275 | 0.0 | 3.0 | 0.00 | 0.17 | 0.17 | 100 | 1006.2 |
| 20260505013043 | 41 | 275 | 0.0 | 2.0 | 0.00 | 0.17 | 0.17 | 100 | 1006.4 |
| 20260505011539 | 41 | 275 | 0.0 | 1.0 | 0.00 | 0.17 | 0.17 | 100 | 1006.3 |
| 20260505010052 | 42 | 275 | 0.0 | 1.0 | 0.00 | 0.17 | 0.17 | 100 | 1006.2 |
| 20260505004531 | 43 | 275 | 0.0 | 0.0 | 0.00 | 0.17 | 0.17 | 100 | 1006.2 |
| 20260505003028 | 44 | 275 | 0.0 | 2.0 | 0.00 | 0.17 | 0.17 | 100 | 1006.1 |
| 20260505001521 | 46 | 275 | 0.0 | 0.0 | 0.00 | 0.17 | 0.17 | 100 | 1006.1 |
| 20260505000117 | 47 | 275 | 0.0 | 0.0 | 0.00 | 0.17 | 0.17 | 100 | 1006.0 |
| 20260504234513 | 48 | 275 | 0.0 | 0.0 | 0.00 | 0.17 | 0.17 | 100 | 1005.8 |
| 20260504233008 | 49 | 275 | 0.0 | 0.0 | 0.00 | 0.17 | 0.17 | 100 | 1005.8 |
| 20260504231503 | 49 | 275 | 0.0 | 2.0 | 0.00 | 0.17 | 0.17 | 4 | 1005.6 |
| 20260504230116 | 49 | 275 | 0.0 | 4.0 | 0.00 | 0.17 | 0.17 | 5 | 1005.6 |
| 20260504224620 | 50 | 270 | 0.0 | 5.0 | 0.00 | 0.17 | 0.17 | 10 | 1005.5 |
| 20260504223051 | 50 | 270 | 0.0 | 6.0 | 0.00 | 0.17 | 0.17 | 4 | 1005.3 |
| 20260504221546 | 48 | 271 | 3.0 | 8.0 | 0.00 | 0.17 | 0.17 | 2 | 1005.5 |
| 20260504220051 | 49 | 246 | 5.0 | 8.0 | 0.00 | 0.17 | 0.17 | 6 | 1005.4 |
| 20260504214544 | 49 | 261 | 3.0 | 10.0 | 0.00 | 0.17 | 0.17 | 100 | 1005.5 |